"Period start","avg(HW err(1)/warn(2) (#))","avg(Visibility (m))","avg(Weather code (#))","avg(Precip intensity (mm/h))","min(HW err(1)/warn(2) (#))","max(HW err(1)/warn(2) (#))","std(HW err(1)/warn(2) (#))","med(HW err(1)/warn(2) (#))","min(Visibility (m))","max(Visibility (m))","std(Visibility (m))","med(Visibility (m))","min(Weather code (#))","max(Weather code (#))","std(Weather code (#))","med(Weather code (#))","min(Precip intensity (mm/h))","max(Precip intensity (mm/h))","std(Precip intensity (mm/h))","med(Precip intensity (mm/h))"
2017-08-26 00:00:00,2,8698,2,0.00,2,2,0,2,6267,12144,1707,8198,0,10,4,0,0.00,0.00,0.00,0.00
2017-08-26 00:10:00,2,20294,10,0.00,2,2,0,2,6555,47677,14851,11882,10,10,0,10,0.00,0.00,0.00,0.00
2017-08-26 00:20:00,2,41972,1,0.00,2,2,0,2,30817,50000,6700,43110,0,10,3,0,0.00,0.00,0.00,0.00
2017-08-26 00:30:00,2,25439,0,0.00,2,2,0,2,6507,47035,14292,22942,0,0,0,0,0.00,0.00,0.00,0.00
2017-08-26 00:40:00,2,23922,0,0.00,2,2,0,2,17085,37366,6644,22316,0,0,0,0,0.00,0.00,0.00,0.00
2017-08-26 00:50:00,2,42697,0,0.00,2,2,0,2,24824,50000,8887,47047,0,0,0,0,0.00,0.00,0.00,0.00
2017-08-26 01:00:00,2,50000,0,0.00,2,2,0,2,50000,50000,0,50000,0,0,0,0,0.00,0.00,0.00,0.00
2017-08-26 01:10:00,2,50000,0,0.00,2,2,0,2,50000,50000,0,50000,0,0,0,0,0.00,0.00,0.00,0.00
2017-08-26 01:20:00,2,50000,0,0.00,2,2,0,2,50000,50000,0,50000,0,0,0,0,0.00,0.00,0.00,0.00
2017-08-26 01:30:00,2,49991,0,0.00,2,2,0,2,49911,50000,27,50000,0,0,0,0,0.00,0.00,0.00,0.00
2017-08-26 01:40:00,2,50000,0,0.00,2,2,0,2,50000,50000,0,50000,0,0,0,0,0.00,0.00,0.00,0.00
2017-08-26 01:50:00,2,50000,0,0.00,0,2,1,2,50000,50000,0,50000,0,0,0,0,0.00,0.00,0.00,0.00
2017-08-26 02:00:00,2,50000,0,0.00,0,2,1,2,50000,50000,0,50000,0,0,0,0,0.00,0.00,0.00,0.00
2017-08-26 02:10:00,2,49867,0,0.00,2,2,0,2,48669,50000,399,50000,0,0,0,0,0.00,0.00,0.00,0.00
2017-08-26 02:20:00,2,50000,0,0.00,2,2,0,2,50000,50000,0,50000,0,0,0,0,0.00,0.00,0.00,0.00
2017-08-26 02:30:00,2,49799,0,0.00,2,2,0,2,47989,50000,603,50000,0,0,0,0,0.00,0.00,0.00,0.00
2017-08-26 02:40:00,2,49797,0,0.00,2,2,0,2,48042,50000,585,50000,0,0,0,0,0.00,0.00,0.00,0.00
2017-08-26 02:50:00,2,50000,0,0.00,2,2,0,2,50000,50000,0,50000,0,0,0,0,0.00,0.00,0.00,0.00
2017-08-26 03:00:00,2,48822,0,0.00,2,2,0,2,46154,50000,1660,50000,0,0,0,0,0.00,0.00,0.00,0.00
2017-08-26 03:10:00,2,50000,0,0.00,2,2,0,2,50000,50000,0,50000,0,0,0,0,0.00,0.00,0.00,0.00
2017-08-26 03:20:00,2,48903,0,0.00,2,2,0,2,43110,50000,2282,50000,0,0,0,0,0.00,0.00,0.00,0.00
2017-08-26 03:30:00,2,49800,0,0.00,2,2,0,2,48000,50000,600,50000,0,0,0,0,0.00,0.00,0.00,0.00
2017-08-26 03:40:00,2,50000,0,0.00,2,2,0,2,50000,50000,0,50000,0,0,0,0,0.00,0.00,0.00,0.00
2017-08-26 03:50:00,2,50000,0,0.00,2,2,0,2,50000,50000,0,50000,0,0,0,0,0.00,0.00,0.00,0.00
2017-08-26 04:00:00,2,49333,0,0.00,2,2,0,2,45899,50000,1268,50000,0,0,0,0,0.00,0.00,0.00,0.00
2017-08-26 04:10:00,2,49824,0,0.00,2,2,0,2,48928,50000,363,50000,0,0,0,0,0.00,0.00,0.00,0.00
2017-08-26 04:20:00,2,49283,0,0.00,2,2,0,2,43676,50000,1880,50000,0,0,0,0,0.00,0.00,0.00,0.00
2017-08-26 04:30:00,2,49147,0,0.00,2,2,0,2,45950,50000,1390,50000,0,0,0,0,0.00,0.00,0.00,0.00
2017-08-26 04:40:00,2,49913,0,0.00,2,2,0,2,49129,50000,261,50000,0,0,0,0,0.00,0.00,0.00,0.00
2017-08-26 04:50:00,2,50000,0,0.00,2,2,0,2,50000,50000,0,50000,0,0,0,0,0.00,0.00,0.00,0.00
2017-08-26 05:00:00,2,50000,0,0.00,2,2,0,2,50000,50000,0,50000,0,0,0,0,0.00,0.00,0.00,0.00
2017-08-26 05:10:00,2,50000,0,0.00,2,2,0,2,50000,50000,0,50000,0,0,0,0,0.00,0.00,0.00,0.00
2017-08-26 05:20:00,2,49999,0,0.00,2,2,0,2,49988,50000,4,50000,0,0,0,0,0.00,0.00,0.00,0.00
2017-08-26 05:30:00,2,49895,0,0.00,2,2,0,2,48960,50000,312,50000,0,0,0,0,0.00,0.00,0.00,0.00
2017-08-26 05:40:00,2,49908,0,0.00,0,2,1,2,49085,50000,274,50000,0,0,0,0,0.00,0.00,0.00,0.00
2017-08-26 05:50:00,2,50000,0,0.00,2,2,0,2,50000,50000,0,50000,0,0,0,0,0.00,0.00,0.00,0.00
2017-08-26 06:00:00,2,49958,0,0.00,2,2,0,2,49582,50000,125,50000,0,0,0,0,0.00,0.00,0.00,0.00
2017-08-26 06:10:00,2,49980,0,0.00,2,2,0,2,49799,50000,60,50000,0,0,0,0,0.00,0.00,0.00,0.00
2017-08-26 06:20:00,2,50000,0,0.00,2,2,0,2,50000,50000,0,50000,0,0,0,0,0.00,0.00,0.00,0.00
2017-08-26 06:30:00,2,49757,0,0.00,2,2,0,2,47573,50000,728,50000,0,0,0,0,0.00,0.00,0.00,0.00
2017-08-26 06:40:00,2,50000,0,0.00,2,2,0,2,50000,50000,0,50000,0,0,0,0,0.00,0.00,0.00,0.00
2017-08-26 06:50:00,2,50000,0,0.00,2,2,0,2,50000,50000,0,50000,0,0,0,0,0.00,0.00,0.00,0.00
2017-08-26 07:00:00,2,49785,0,0.00,2,2,0,2,47926,50000,620,50000,0,0,0,0,0.00,0.00,0.00,0.00
2017-08-26 07:10:00,1,50000,0,0.00,0,2,1,2,50000,50000,0,50000,0,0,0,0,0.00,0.00,0.00,0.00
2017-08-26 07:20:00,1,49902,0,0.00,0,2,1,0,49015,50000,296,50000,0,0,0,0,0.00,0.00,0.00,0.00
2017-08-26 07:30:00,2,50000,0,0.00,0,2,1,2,50000,50000,0,50000,0,0,0,0,0.00,0.00,0.00,0.00
2017-08-26 07:40:00,0,50000,0,0.00,0,0,0,0,50000,50000,0,50000,0,0,0,0,0.00,0.00,0.00,0.00
2017-08-26 07:50:00,0,50000,0,0.00,0,0,0,0,50000,50000,0,50000,0,0,0,0,0.00,0.00,0.00,0.00
2017-08-26 08:00:00,0,50000,0,0.00,0,0,0,0,50000,50000,0,50000,0,0,0,0,0.00,0.00,0.00,0.00
2017-08-26 08:10:00,0,50000,0,0.00,0,0,0,0,50000,50000,0,50000,0,0,0,0,0.00,0.00,0.00,0.00
2017-08-26 08:20:00,2,50000,0,0.00,0,2,1,2,50000,50000,0,50000,0,0,0,0,0.00,0.00,0.00,0.00
2017-08-26 08:30:00,1,50000,0,0.00,0,2,1,2,50000,50000,0,50000,0,0,0,0,0.00,0.00,0.00,0.00
2017-08-26 08:40:00,2,50000,0,0.00,0,2,1,2,50000,50000,0,50000,0,0,0,0,0.00,0.00,0.00,0.00
2017-08-26 08:50:00,2,50000,0,0.00,2,2,0,2,50000,50000,0,50000,0,0,0,0,0.00,0.00,0.00,0.00
2017-08-26 09:00:00,2,50000,0,0.00,2,2,0,2,50000,50000,0,50000,0,0,0,0,0.00,0.00,0.00,0.00
2017-08-26 09:10:00,2,50000,0,0.00,2,2,0,2,50000,50000,0,50000,0,0,0,0,0.00,0.00,0.00,0.00
2017-08-26 09:20:00,2,50000,0,0.00,2,2,0,2,50000,50000,0,50000,0,0,0,0,0.00,0.00,0.00,0.00
2017-08-26 09:30:00,2,37161,0,0.00,2,2,0,2,23067,50000,8847,39929,0,0,0,0,0.00,0.00,0.00,0.00
2017-08-26 09:40:00,2,21819,0,0.00,2,2,0,2,8357,46531,12299,18331,0,0,0,0,0.00,0.00,0.00,0.00
2017-08-26 09:50:00,2,50000,0,0.00,2,2,0,2,50000,50000,0,50000,0,0,0,0,0.00,0.00,0.00,0.00
2017-08-26 10:00:00,2,50000,0,0.00,2,2,0,2,50000,50000,0,50000,0,0,0,0,0.00,0.00,0.00,0.00
2017-08-26 10:10:00,2,42839,0,0.00,2,2,0,2,32507,50000,7064,44162,0,0,0,0,0.00,0.00,0.00,0.00
2017-08-26 10:20:00,2,45322,0,0.00,2,2,0,2,32979,50000,6744,49847,0,0,0,0,0.00,0.00,0.00,0.00
2017-08-26 10:30:00,2,50000,0,0.00,2,2,0,2,50000,50000,0,50000,0,0,0,0,0.00,0.00,0.00,0.00
2017-08-26 10:40:00,2,48950,0,0.00,2,2,0,2,46236,50000,1436,50000,0,0,0,0,0.00,0.00,0.00,0.00
2017-08-26 10:50:00,2,50000,0,0.00,2,2,0,2,50000,50000,0,50000,0,0,0,0,0.00,0.00,0.00,0.00
2017-08-26 11:00:00,2,50000,0,0.00,2,2,0,2,50000,50000,0,50000,0,0,0,0,0.00,0.00,0.00,0.00
2017-08-26 11:10:00,2,50000,0,0.00,0,2,1,2,50000,50000,0,50000,0,0,0,0,0.00,0.00,0.00,0.00
2017-08-26 11:20:00,1,50000,0,0.00,0,2,1,1,50000,50000,0,50000,0,0,0,0,0.00,0.00,0.00,0.00
2017-08-26 11:30:00,1,48882,0,0.00,0,2,1,0,42677,50000,2204,50000,0,0,0,0,0.00,0.00,0.00,0.00
2017-08-26 11:40:00,1,50000,0,0.00,0,2,1,2,50000,50000,0,50000,0,0,0,0,0.00,0.00,0.00,0.00
2017-08-26 11:50:00,2,50000,0,0.00,0,2,1,2,50000,50000,0,50000,0,0,0,0,0.00,0.00,0.00,0.00
2017-08-26 12:00:00,2,50000,0,0.00,2,2,0,2,50000,50000,0,50000,0,0,0,0,0.00,0.00,0.00,0.00
2017-08-26 12:10:00,2,50000,0,0.00,2,2,0,2,50000,50000,0,50000,0,0,0,0,0.00,0.00,0.00,0.00
2017-08-26 12:20:00,2,50000,0,0.00,0,2,1,2,50000,50000,0,50000,0,0,0,0,0.00,0.00,0.00,0.00
2017-08-26 12:30:00,2,50000,0,0.00,0,2,1,2,50000,50000,0,50000,0,0,0,0,0.00,0.00,0.00,0.00
2017-08-26 12:40:00,2,50000,0,0.00,0,2,1,2,50000,50000,0,50000,0,0,0,0,0.00,0.00,0.00,0.00
2017-08-26 12:50:00,2,50000,0,0.00,0,2,1,2,50000,50000,0,50000,0,0,0,0,0.00,0.00,0.00,0.00
2017-08-26 13:00:00,2,50000,0,0.00,2,2,0,2,50000,50000,0,50000,0,0,0,0,0.00,0.00,0.00,0.00
2017-08-26 13:10:00,2,50000,0,0.00,2,2,0,2,50000,50000,0,50000,0,0,0,0,0.00,0.00,0.00,0.00
2017-08-26 13:20:00,2,50000,0,0.00,2,2,0,2,50000,50000,0,50000,0,0,0,0,0.00,0.00,0.00,0.00
2017-08-26 13:30:00,2,50000,0,0.00,2,2,0,2,50000,50000,0,50000,0,0,0,0,0.00,0.00,0.00,0.00
2017-08-26 13:40:00,2,50000,0,0.00,2,2,0,2,50000,50000,0,50000,0,0,0,0,0.00,0.00,0.00,0.00
2017-08-26 13:50:00,2,50000,0,0.00,2,2,0,2,50000,50000,0,50000,0,0,0,0,0.00,0.00,0.00,0.00
2017-08-26 14:00:00,2,50000,0,0.00,2,2,0,2,50000,50000,0,50000,0,0,0,0,0.00,0.00,0.00,0.00
2017-08-26 14:10:00,2,50000,0,0.00,2,2,0,2,50000,50000,0,50000,0,0,0,0,0.00,0.00,0.00,0.00
2017-08-26 14:20:00,2,50000,0,0.00,2,2,0,2,50000,50000,0,50000,0,0,0,0,0.00,0.00,0.00,0.00
2017-08-26 14:30:00,2,50000,0,0.00,2,2,0,2,50000,50000,0,50000,0,0,0,0,0.00,0.00,0.00,0.00
2017-08-26 14:40:00,2,50000,0,0.00,2,2,0,2,50000,50000,0,50000,0,0,0,0,0.00,0.00,0.00,0.00
2017-08-26 14:50:00,2,50000,0,0.00,2,2,0,2,50000,50000,0,50000,0,0,0,0,0.00,0.00,0.00,0.00
2017-08-26 15:00:00,2,50000,0,0.00,2,2,0,2,50000,50000,0,50000,0,0,0,0,0.00,0.00,0.00,0.00
2017-08-26 15:10:00,2,50000,0,0.00,2,2,0,2,50000,50000,0,50000,0,0,0,0,0.00,0.00,0.00,0.00
2017-08-26 15:20:00,2,50000,0,0.00,2,2,0,2,50000,50000,0,50000,0,0,0,0,0.00,0.00,0.00,0.00
2017-08-26 15:30:00,2,49854,0,0.00,2,2,0,2,49034,50000,310,50000,0,0,0,0,0.00,0.00,0.00,0.00
2017-08-26 15:40:00,2,40252,0,0.00,0,2,1,2,30535,50000,6452,42048,0,0,0,0,0.00,0.00,0.00,0.00
2017-08-26 15:50:00,2,48328,0,0.00,2,2,0,2,45431,50000,1632,48912,0,0,0,0,0.00,0.00,0.00,0.00
2017-08-26 16:00:00,2,49266,0,0.00,2,2,0,2,46155,50000,1470,50000,0,0,0,0,0.00,0.00,0.00,0.00
2017-08-26 16:10:00,2,46243,0,0.00,2,2,0,2,29907,50000,5783,48145,0,0,0,0,0.00,0.00,0.00,0.00
2017-08-26 16:20:00,2,43031,0,0.00,2,2,0,2,24387,50000,9326,46950,0,0,0,0,0.00,0.00,0.00,0.00
2017-08-26 16:30:00,2,48009,0,0.00,2,2,0,2,40781,50000,2900,49660,0,0,0,0,0.00,0.00,0.00,0.00
2017-08-26 16:40:00,2,42469,0,0.00,2,2,0,2,32012,50000,5600,42222,0,0,0,0,0.00,0.00,0.00,0.00
2017-08-26 16:50:00,2,12424,23,0.11,2,2,0,2,7032,28912,6678,9994,0,51,24,20,0.00,0.45,0.16,0.03
2017-08-26 17:00:00,2,17042,0,0.00,2,2,0,2,9294,28233,6123,15182,0,0,0,0,0.00,0.00,0.00,0.00
2017-08-26 17:10:00,2,24380,0,0.00,2,2,0,2,8714,45570,12590,19205,0,0,0,0,0.00,0.00,0.00,0.00
2017-08-26 17:20:00,2,17173,0,0.00,2,2,0,2,11464,27479,4606,16168,0,0,0,0,0.00,0.00,0.00,0.00
2017-08-26 17:30:00,2,30712,23,0.04,2,2,0,2,17828,45396,9645,29952,0,51,24,20,0.00,0.20,0.08,0.00
2017-08-26 17:40:00,2,8756,2,0.00,2,2,0,2,5724,12987,2153,8188,0,10,4,0,0.00,0.00,0.00,0.00
2017-08-26 17:50:00,2,18354,7,0.00,2,2,0,2,10605,29346,5761,16520,0,10,5,10,0.00,0.00,0.00,0.00
2017-08-26 18:00:00,2,18296,0,0.00,2,2,0,2,10001,34597,6937,18335,0,0,0,0,0.00,0.00,0.00,0.00
2017-08-26 18:10:00,2,11870,5,0.00,2,2,0,2,3447,32074,8365,7876,0,10,5,5,0.00,0.00,0.00,0.00
2017-08-26 18:20:00,2,25673,6,0.00,2,2,0,2,10311,45430,13571,23448,0,10,5,10,0.00,0.00,0.00,0.00
2017-08-26 18:30:00,2,26395,0,0.00,2,2,0,2,6863,50000,17698,20874,0,0,0,0,0.00,0.00,0.00,0.00
2017-08-26 18:40:00,2,17351,0,0.00,2,2,0,2,5942,50000,13288,11832,0,0,0,0,0.00,0.00,0.00,0.00
2017-08-26 18:50:00,2,15588,0,0.00,2,2,0,2,11353,22931,3542,14137,0,0,0,0,0.00,0.00,0.00,0.00
2017-08-26 19:00:00,2,29640,0,0.00,2,2,0,2,11621,50000,14400,27823,0,0,0,0,0.00,0.00,0.00,0.00
2017-08-26 19:10:00,2,49634,0,0.00,2,2,0,2,47308,50000,828,50000,0,0,0,0,0.00,0.00,0.00,0.00
2017-08-26 19:20:00,2,43363,0,0.00,2,2,0,2,13621,50000,11084,49420,0,0,0,0,0.00,0.00,0.00,0.00
2017-08-26 19:30:00,2,22815,0,0.00,2,2,0,2,10576,33657,7802,24273,0,0,0,0,0.00,0.00,0.00,0.00
2017-08-26 19:40:00,2,41053,0,0.00,2,2,0,2,27577,50000,7514,43928,0,0,0,0,0.00,0.00,0.00,0.00
2017-08-26 19:50:00,2,39027,0,0.00,2,2,0,2,26790,49573,7448,40215,0,0,0,0,0.00,0.00,0.00,0.00
2017-08-26 20:00:00,2,28115,0,0.00,2,2,0,2,10388,38393,9318,27408,0,0,0,0,0.00,0.00,0.00,0.00
2017-08-26 20:10:00,2,48520,0,0.00,2,2,0,2,44839,50000,1943,49520,0,0,0,0,0.00,0.00,0.00,0.00
2017-08-26 20:20:00,2,48563,0,0.00,2,2,0,2,35729,50000,4278,50000,0,0,0,0,0.00,0.00,0.00,0.00
2017-08-26 20:30:00,2,24863,0,0.00,2,2,0,2,12804,47459,12546,17942,0,0,0,0,0.00,0.00,0.00,0.00
2017-08-26 20:40:00,2,15687,0,0.00,2,2,0,2,9388,31583,5828,14552,0,0,0,0,0.00,0.00,0.00,0.00
2017-08-26 20:50:00,2,21818,0,0.00,2,2,0,2,11679,37655,9226,16261,0,0,0,0,0.00,0.00,0.00,0.00
2017-08-26 21:00:00,2,48616,0,0.00,2,2,0,2,41621,50000,2844,50000,0,0,0,0,0.00,0.00,0.00,0.00
2017-08-26 21:10:00,2,27189,0,0.00,2,2,0,2,13264,50000,14414,20199,0,0,0,0,0.00,0.00,0.00,0.00
2017-08-26 21:20:00,2,21753,0,0.00,2,2,0,2,14797,31909,5293,21012,0,0,0,0,0.00,0.00,0.00,0.00
2017-08-26 21:30:00,2,12254,0,0.00,2,2,0,2,6357,20538,4562,11808,0,0,0,0,0.00,0.00,0.00,0.00
2017-08-26 21:40:00,2,30871,0,0.00,2,2,0,2,12928,49572,12808,30444,0,0,0,0,0.00,0.00,0.00,0.00
2017-08-26 21:50:00,2,24201,0,0.00,2,2,0,2,8403,47714,12812,23138,0,0,0,0,0.00,0.00,0.00,0.00
2017-08-26 22:00:00,2,30737,0,0.00,2,2,0,2,5785,50000,20192,39146,0,0,0,0,0.00,0.00,0.00,0.00
2017-08-26 22:10:00,2,5792,21,0.11,2,2,0,2,3526,9360,2017,5410,0,51,21,10,0.00,0.95,0.28,0.00
2017-08-26 22:20:00,2,4071,31,0.38,2,2,0,2,2198,7501,1884,3158,10,61,23,25,0.00,1.30,0.50,0.00
2017-08-26 22:30:00,2,1871,59,0.57,2,2,0,2,1365,2506,385,1878,52,67,6,61,0.15,1.90,0.52,0.38
2017-08-26 22:40:00,2,3514,63,0.39,2,2,0,2,2133,5540,966,3415,61,67,3,61,0.00,1.80,0.50,0.20
2017-08-26 22:50:00,2,2484,49,0.79,2,2,0,2,1730,4439,857,2104,41,61,10,41,0.00,3.80,1.10,0.28
2017-08-26 23:00:00,2,4362,56,0.42,2,2,0,2,2290,9677,2327,3536,52,61,4,56,0.05,1.30,0.50,0.15
2017-08-26 23:10:00,2,6299,40,0.00,2,2,0,2,3753,9714,1992,6514,10,71,30,36,0.00,0.00,0.00,0.00
2017-08-26 23:20:00,2,30452,10,0.00,2,2,0,2,6198,50000,15894,26112,10,10,0,10,0.00,0.00,0.00,0.00
2017-08-26 23:30:00,2,49556,0,0.00,2,2,0,2,46433,50000,1073,50000,0,0,0,0,0.00,0.00,0.00,0.00
2017-08-26 23:40:00,2,23959,8,0.06,2,2,0,2,5135,45220,13768,26088,0,40,16,0,0.00,0.45,0.14,0.00
2017-08-26 23:50:00,2,15622,5,0.00,2,2,0,2,2837,44458,14850,6973,0,10,5,5,0.00,0.00,0.00,0.00
